When you browse on this site, cookies collect data to enhance your experience and personalize the content and advertising you see.
Visit our Privacy Policy to learn more. By continuing to use the site, you agree to this use of cookies and data.
  • In Spain
  • List of Countries
  • For 7 days
  • Water Temperature
  • Satellite Maps
  • Weather Map
  • Weather Widgets
  • user-avatar
    Login

    Hourly Weather Dalat

    Today, 21 May, Tuesday

    Time Temperature Precipitation Wind Pressure Humidity
    00:00 +19°C° 1.4 mm 0 mps 651 mmHg 94%
    01:00 +20°C° 0 mm 1 mps 651 mmHg 94%
    02:00 +20°C° 0.3 mm 1 mps 651 mmHg 93%
    03:00 +18°C° 0.3 mm 0 mps 651 mmHg 93%
    04:00 +18°C° 0.3 mm 0 mps 651 mmHg 93%
    05:00 +19°C° 0.3 mm 0 mps 651 mmHg 90%
    06:00 +20°C° 0.3 mm 0 mps 652 mmHg 87%
    07:00 +24°C° 0 mm 1 mps 653 mmHg 82%
    08:00 +25°C° 1.8 mm 1 mps 653 mmHg 79%
    09:00 +26°C° 1.8 mm 1 mps 653 mmHg 76%
    10:00 +26°C° 1.8 mm 0 mps 654 mmHg 72%
    11:00 +28°C° 3.4 mm 1 mps 653 mmHg 73%
    12:00 +28°C° 3.4 mm 1 mps 653 mmHg 73%
    13:00 +26°C° 0 mm 0 mps 653 mmHg 74%
    14:00 +25°C° 2.9 mm 0 mps 652 mmHg 77%
    15:00 +24°C° 2.9 mm 0 mps 652 mmHg 81%
    16:00 +23°C° 2.9 mm 0 mps 651 mmHg 85%
    17:00 +22°C° 1.6 mm 0 mps 651 mmHg 87%
    18:00 +21°C° 1.6 mm 0 mps 651 mmHg 89%
    19:00 +19°C° 0 mm 0 mps 651 mmHg 92%
    20:00 +19°C° 1.5 mm 0 mps 651 mmHg 92%
    21:00 +19°C° 1.5 mm 0 mps 651 mmHg 92%
    22:00 +19°C° 1.5 mm 0 mps 652 mmHg 92%
    23:00 +18°C° 1 mm 0 mps 652 mmHg 92%

    Tomorrow, 22 May, Wednesday

    Time Temperature Precipitation Wind Pressure Humidity
    00:00 +18°C° 1 mm 0 mps 652 mmHg 93%
    01:00 +18°C° 1 mm 0 mps 652 mmHg 93%
    02:00 +18°C° 0.5 mm 0 mps 651 mmHg 92%
    03:00 +20°C° 0.5 mm 1 mps 651 mmHg 92%
    04:00 +20°C° 0.5 mm 1 mps 651 mmHg 92%
    05:00 +19°C° 0.5 mm 0 mps 651 mmHg 89%
    06:00 +20°C° 0.5 mm 0 mps 652 mmHg 86%
    07:00 +21°C° 0.5 mm 0 mps 652 mmHg 83%
    08:00 +23°C° 1.1 mm 0 mps 653 mmHg 76%
    09:00 +25°C° 1.1 mm 0 mps 654 mmHg 69%
    10:00 +29°C° 1.1 mm 1 mps 654 mmHg 61%
    11:00 +29°C° 3.1 mm 1 mps 654 mmHg 65%
    12:00 +28°C° 3.1 mm 1 mps 653 mmHg 69%
    13:00 +28°C° 3.1 mm 1 mps 652 mmHg 73%
    14:00 +26°C° 4.7 mm 1 mps 652 mmHg 79%
    15:00 +25°C° 4.7 mm 1 mps 651 mmHg 85%
    16:00 +23°C° 4.7 mm 1 mps 651 mmHg 91%
    17:00 +23°C° 3.1 mm 1 mps 651 mmHg 92%
    18:00 +22°C° 3.1 mm 1 mps 651 mmHg 94%
    19:00 +21°C° 3.1 mm 1 mps 651 mmHg 95%
    20:00 +21°C° 0.4 mm 1 mps 651 mmHg 95%
    21:00 +21°C° 0.4 mm 1 mps 651 mmHg 95%
    22:00 +21°C° 0.4 mm 1 mps 652 mmHg 94%
    23:00 +21°C° 0.3 mm 1 mps 652 mmHg 94%

    Day after tomorrow, 23 May, Thursday

    Time Temperature Precipitation Wind Pressure Humidity
    00:00 +20°C° 0.3 mm 1 mps 652 mmHg 94%
    01:00 +20°C° 0.3 mm 1 mps 652 mmHg 93%
    02:00 +20°C° 0 mm 1 mps 651 mmHg 93%
    03:00 +20°C° 0 mm 1 mps 651 mmHg 93%
    04:00 +20°C° 0 mm 1 mps 651 mmHg 93%
    05:00 +21°C° 0.5 mm 1 mps 651 mmHg 91%
    06:00 +22°C° 0.5 mm 1 mps 652 mmHg 89%
    07:00 +22°C° 0.5 mm 1 mps 653 mmHg 87%
    08:00 +24°C° 0.8 mm 1 mps 653 mmHg 81%
    09:00 +25°C° 0.8 mm 1 mps 654 mmHg 74%
    10:00 +27°C° 0.8 mm 1 mps 654 mmHg 67%
    11:00 +27°C° 1.2 mm 1 mps 654 mmHg 67%
    12:00 +28°C° 1.2 mm 1 mps 654 mmHg 66%
    13:00 +28°C° 1.2 mm 1 mps 653 mmHg 65%
    14:00 +27°C° 1.7 mm 1 mps 653 mmHg 71%
    15:00 +27°C° 1.7 mm 1 mps 652 mmHg 76%
    16:00 +26°C° 1.7 mm 1 mps 651 mmHg 81%
    17:00 +22°C° 1.6 mm 0 mps 651 mmHg 84%
    18:00 +21°C° 1.6 mm 0 mps 651 mmHg 88%
    19:00 +20°C° 1.6 mm 0 mps 651 mmHg 92%
    20:00 +19°C° 1.6 mm 0 mps 652 mmHg 93%
    21:00 +19°C° 1.6 mm 0 mps 652 mmHg 93%
    22:00 +21°C° 1.6 mm 1 mps 653 mmHg 94%
    23:00 +21°C° 0.1 mm 1 mps 652 mmHg 94%

    24 May, Friday

    Time Temperature Precipitation Wind Pressure Humidity
    00:00 +21°C° 0.1 mm 1 mps 652 mmHg 94%
    01:00 +21°C° 0.1 mm 1 mps 652 mmHg 94%
    02:00 +21°C° 0.1 mm 1 mps 651 mmHg 94%
    03:00 +21°C° 0.1 mm 1 mps 651 mmHg 94%
    04:00 +20°C° 0.1 mm 1 mps 651 mmHg 94%
    05:00 +21°C° 0.4 mm 1 mps 651 mmHg 92%
    06:00 +22°C° 0.4 mm 1 mps 652 mmHg 91%
    07:00 +23°C° 0.4 mm 1 mps 652 mmHg 89%
    08:00 +24°C° 0.2 mm 1 mps 653 mmHg 81%
    09:00 +26°C° 0.2 mm 1 mps 654 mmHg 72%
    10:00 +28°C° 0.2 mm 1 mps 654 mmHg 64%
    11:00 +28°C° 1.8 mm 1 mps 654 mmHg 67%
    12:00 +28°C° 1.8 mm 1 mps 653 mmHg 71%
    13:00 +28°C° 1.8 mm 1 mps 653 mmHg 74%
    14:00 +27°C° 2.6 mm 1 mps 652 mmHg 79%
    15:00 +25°C° 2.6 mm 1 mps 651 mmHg 83%
    16:00 +24°C° 2.6 mm 1 mps 650 mmHg 87%
    17:00 +23°C° 1.6 mm 1 mps 651 mmHg 89%
    18:00 +22°C° 1.6 mm 1 mps 651 mmHg 92%
    19:00 +21°C° 1.6 mm 1 mps 651 mmHg 94%
    20:00 +21°C° 0.2 mm 1 mps 651 mmHg 93%
    21:00 +21°C° 0.2 mm 1 mps 652 mmHg 93%
    22:00 +21°C° 0.2 mm 1 mps 652 mmHg 93%
    23:00 +20°C° 0 mm 1 mps 651 mmHg 93%

    25 May, Saturday

    Time Temperature Precipitation Wind Pressure Humidity
    00:00 +20°C° 0 mm 1 mps 651 mmHg 92%
    01:00 +20°C° 0 mm 1 mps 651 mmHg 92%
    02:00 +20°C° 0 mm 1 mps 650 mmHg 92%
    03:00 +20°C° 0 mm 1 mps 650 mmHg 92%
    04:00 +20°C° 0 mm 1 mps 650 mmHg 92%
    05:00 +21°C° 0.1 mm 1 mps 650 mmHg 91%
    06:00 +21°C° 0.1 mm 1 mps 651 mmHg 90%
    07:00 +21°C° 0.1 mm 1 mps 651 mmHg 90%
    08:00 +22°C° 0.2 mm 1 mps 652 mmHg 86%
    09:00 +23°C° 0.2 mm 1 mps 652 mmHg 83%
    10:00 +24°C° 0.2 mm 1 mps 652 mmHg 80%
    11:00 +25°C° 0.4 mm 1 mps 652 mmHg 78%
    12:00 +26°C° 0.4 mm 1 mps 652 mmHg 76%
    13:00 +27°C° 0.4 mm 1 mps 651 mmHg 73%
    14:00 +26°C° 1.4 mm 1 mps 651 mmHg 76%
    15:00 +26°C° 1.4 mm 1 mps 650 mmHg 79%
    16:00 +25°C° 1.4 mm 1 mps 650 mmHg 81%
    17:00 +24°C° 1 mm 1 mps 650 mmHg 85%
    18:00 +22°C° 1 mm 1 mps 650 mmHg 88%
    19:00 +21°C° 1 mm 1 mps 650 mmHg 92%
    20:00 +21°C° 0.1 mm 1 mps 650 mmHg 92%
    21:00 +21°C° 0.1 mm 1 mps 651 mmHg 91%
    22:00 +21°C° 0.1 mm 1 mps 651 mmHg 91%
    23:00 +20°C° 0 mm 1 mps 651 mmHg 91%

    26 May, Sunday

    Time Temperature Precipitation Wind Pressure Humidity
    00:00 +20°C° 0 mm 1 mps 650 mmHg 91%
    01:00 +20°C° 0 mm 1 mps 650 mmHg 91%
    02:00 +20°C° 0.1 mm 1 mps 650 mmHg 91%
    03:00 +20°C° 0.1 mm 1 mps 649 mmHg 92%
    04:00 +20°C° 0.1 mm 1 mps 649 mmHg 92%
    05:00 +21°C° 0.2 mm 1 mps 650 mmHg 91%
    06:00 +22°C° 0.2 mm 1 mps 651 mmHg 90%
    07:00 +22°C° 0.2 mm 1 mps 651 mmHg 88%
    08:00 +23°C° 1 mm 1 mps 652 mmHg 84%
    09:00 +25°C° 1 mm 1 mps 652 mmHg 80%
    10:00 +26°C° 1 mm 1 mps 653 mmHg 75%
    11:00 +26°C° 1.2 mm 1 mps 652 mmHg 76%
    12:00 +27°C° 1.2 mm 1 mps 652 mmHg 76%
    13:00 +27°C° 1.2 mm 1 mps 651 mmHg 77%
    14:00 +26°C° 2.2 mm 1 mps 651 mmHg 80%
    15:00 +26°C° 2.2 mm 1 mps 650 mmHg 83%
    16:00 +25°C° 2.2 mm 1 mps 650 mmHg 85%
    17:00 +24°C° 2.3 mm 1 mps 650 mmHg 88%
    18:00 +22°C° 2.3 mm 1 mps 650 mmHg 90%
    19:00 +21°C° 2.3 mm 1 mps 650 mmHg 92%
    20:00 +21°C° 0.2 mm 1 mps 651 mmHg 93%
    21:00 +21°C° 0.2 mm 1 mps 651 mmHg 93%
    22:00 +21°C° 0.2 mm 1 mps 651 mmHg 94%
    23:00 +20°C° 0.1 mm 1 mps 651 mmHg 94%
    Show more